Temp
13 13 13 14 14 14 14 14 14 14 14 15 15 15 15 15 16 15 14 14 15 15 15 15 16 16 16 16 16 16 16 16 17 17 17 17 16 16 16 16 16 16 16 16 16 16 16 16 16 16 17 16 16 16 16 16 16 16 16 16 16 16 16 17 19 18 16 15 15 15 14 14 13 12 13 13 14 14 13 12 12 12 13 13 12
12 13 13 13 14 14 14 14 15 15 14 14 14 15 15 15 16 15 14 15 15 16 16 16 16 16 16 16 16 16 16 16 17 17 16 16 16 16 16 16 16 16 16 16 16 16 16 16 16 16 16 16 16 16 16 16 16 16 16 16 16 16 16 17 18 18 17 15 14 14 14 14 14 13 12 12 13 14 13 13 13 13 13 13 12
12 12 12 13 13 14 14 15 15 15 15 14 14 15 15 15 15 14 15 15 15 15 16 16 16 16 16 17 17 17 17 17 17 16 16 16 17 17 17 17 16 16 16 16 16 16 16 16 16 16 16 16 16 16 16 16 16 16 16 16 16 16 16 17 17 18 18 16 15 15 14 14 14 14 13 13 13 14 13 13 13 13 14 14 13
12 12 12 13 13 13 14 14 14 15 14 14 14 15 15 15 15 15 15 15 15 15 15 15 15 16 16 17 17 17 17 17 17 17 17 17 17 17 17 17 17 16 16 16 16 16 16 16 16 16 16 16 16 16 16 16 16 16 16 16 16 16 16 16 17 17 18 17 16 15 15 14 14 14 14 14 14 14 13 13 13 13 14 15 14
11 12 12 13 13 13 13 13 14 14 14 14 14 15 15 15 15 15 14 15 15 15 15 15 15 14 15 17 18 18 18 18 18 17 17 17 17 17 17 17 17 16 16 16 16 16 16 16 16 16 16 16 16 16 16 16 16 16 16 16 16 16 16 16 16 17 17 17 16 15 15 14 14 14 14 14 14 13 13 13 14 14 14 15 15
11 12 12 12 13 13 13 13 13 14 14 14 14 15 15 14 14 14 14 15 16 16 16 16 15 14 15 17 18 18 18 18 18 18 18 17 17 17 17 17 17 17 17 16 16 16 16 16 16 16 16 16 16 17 16 16 16 16 16 16 16 16 16 16 16 16 16 17 16 15 15 14 14 14 14 14 14 14 14 13 14 14 14 15 15
11 11 12 12 12 13 13 13 13 13 14 14 14 14 14 14 14 14 15 15 16 16 16 17 16 16 16 18 18 18 18 18 18 18 18 17 17 17 17 17 17 17 17 17 17 16 16 16 17 16 16 16 17 17 17 17 17 17 16 16 16 16 16 16 16 16 16 16 16 16 15 14 14 14 14 14 13 14 14 14 15 15 14 14 14
11 11 11 11 12 12 13 13 13 13 14 14 14 14 14 14 14 14 15 15 15 16 16 16 16 17 17 17 17 17 18 18 18 18 17 17 17 17 17 17 17 17 17 17 17 17 17 17 17 17 17 17 17 17 17 17 17 17 17 17 16 16 16 16 16 16 16 16 16 16 15 15 14 14 14 14 13 14 14 15 15 15 14 15 14
10 10 10 11 11 12 13 13 13 13 13 14 14 14 14 14 14 14 14 15 15 15 16 15 16 17 17 17 17 17 17 17 17 17 17 17 17 17 17 17 17 18 17 17 17 17 17 16 16 16 17 17 17 17 17 17 17 17 17 17 17 16 16 15 16 16 16 16 16 16 15 15 15 14 14 14 14 15 14 14 15 14 14 14 14
10 10 10 10 11 11 12 13 13 13 13 13 13 13 13 13 13 13 14 14 15 15 16 16 16 16 17 17 17 17 17 17 17 17 17 17 17 18 18 17 17 17 17 17 16 16 16 16 16 16 16 17 17 17 17 17 17 17 17 17 17 17 16 16 16 16 16 17 17 16 16 16 15 15 14 14 14 14 14 14 14 14 14 14 14
10 10 10 10 10 11 12 12 13 13 13 13 13 13 13 13 13 13 13 14 14 15 15 15 16 16 16 16 17 17 17 17 17 17 17 18 18 18 18 17 17 17 17 17 16 16 16 16 16 16 16 17 17 17 17 17 17 17 17 17 17 17 17 16 16 16 16 17 16 16 16 16 15 14 14 14 14 14 13 13 14 14 14 15 15
9 9 9 10 10 10 11 12 12 12 12 12 13 13 12 12 13 13 13 13 14 14 15 15 15 15 16 16 16 16 16 17 17 17 17 18 18 18 17 17 16 16 16 16 16 16 16 16 16 16 16 16 16 17 17 17 17 17 17 17 17 16 16 16 16 16 16 16 16 15 15 15 14 14 14 14 13 13 13 13 13 14 14 15 15
9 9 9 9 10 10 10 11 11 11 12 12 12 12 12 12 12 12 13 13 13 14 14 14 15 15 15 16 16 16 16 17 17 17 17 17 17 17 17 16 16 16 16 16 16 16 16 16 16 16 16 16 16 16 16 16 16 16 16 16 16 16 16 16 16 16 15 15 15 15 15 14 14 14 14 13 13 13 13 13 13 13 13 14 14
9 8 8 9 9 10 10 10 10 10 11 11 11 12 11 11 11 11 12 12 13 13 13 14 14 15 15 16 16 16 16 17 17 17 17 17 17 17 16 16 16 16 16 16 16 16 16 16 16 16 15 15 16 16 16 16 16 15 15 15 15 15 15 15 15 15 15 15 15 14 14 14 14 13 13 13 13 13 13 13 13 13 13 13 12
8 8 8 8 9 9 9 10 9 9 10 10 11 11 10 10 11 11 11 12 12 12 12 13 13 13 14 15 16 16 16 16 16 17 16 16 15 16 16 16 16 16 16 16 16 16 16 16 16 16 15 15 16 16 15 15 15 15 14 14 14 14 14 14 14 14 14 14 14 14 14 13 13 13 13 13 13 13 13 13 12 12 12 12 12
8 7 7 8 8 8 9 9 8 8 9 9 9 9 9 9 10 10 11 12 11 11 11 11 12 12 13 13 14 15 14 14 15 15 15 15 15 15 15 15 15 14 14 14 15 15 15 15 15 15 15 15 15 15 15 15 15 14 14 13 13 13 13 13 13 13 13 13 14 13 13 13 13 13 13 13 12 12 12 12 12 12 12 12 12
7 7 7 7 7 8 8 8 8 7 7 8 7 8 8 9 9 10 11 12 11 11 10 11 11 11 12 12 12 13 13 12 13 13 14 14 14 14 13 13 12 12 12 13 13 14 14 14 14 14 14 15 15 15 15 15 14 14 13 12 11 12 12 12 12 12 12 13 13 13 13 12 12 12 12 12 12 12 12 12 12 12 12 13 13
7 7 7 7 7 7 7 8 7 7 6 6 6 6 7 8 8 8 10 11 11 10 10 10 10 10 10 10 10 11 11 11 12 12 12 13 13 13 12 11 11 10 11 11 12 13 13 13 13 14 14 14 14 14 14 14 14 14 13 12 11 11 11 11 11 11 11 12 12 12 12 11 11 11 11 11 12 12 12 12 11 12 13 13 13
6 7 6 7 7 7 7 7 7 6 6 6 6 6 6 6 6 7 7 9 10 10 10 10 10 10 10 9 10 10 10 11 11 12 12 12 12 12 12 12 11 11 11 12 12 12 12 12 12 13 13 13 13 13 13 13 13 13 12 12 12 11 11 11 10 10 11 11 11 11 11 11 11 11 11 11 11 11 11 11 11 11 12 13 12
6 6 7 7 7 7 7 6 6 6 6 6 6 6 6 5 6 6 6 7 8 9 10 10 10 9 9 9 9 10 10 10 11 12 12 12 12 12 13 13 12 12 12 12 12 11 11 11 12 12 12 12 12 12 12 12 12 12 12 12 12 11 10 10 10 10 11 11 10 10 10 10 10 10 10 10 10 10 10 10 10 11 11 12 11
6 6 7 7 7 7 6 6 6 6 6 6 6 6 6 5 5 5 5 6 6 7 8 10 9 8 8 8 9 9 9 9 10 11 12 12 12 12 12 12 12 12 11 11 11 11 11 11 11 11 11 11 11 11 11 12 12 12 12 11 11 10 10 10 10 10 10 10 10 9 9 9 9 9 9 9 9 10 10 10 10 10 10 11 11
6 6 7 7 7 7 7 6 6 7 7 7 7 7 7 7 6 5 5 6 5 5 6 8 8 7 7 7 7 8 8 8 9 10 11 12 12 12 12 11 11 11 11 11 11 10 10 10 10 10 10 10 11 11 11 11 11 11 11 11 10 10 10 10 10 9 9 9 9 9 8 8 8 8 8 8 8 8 9 9 9 9 9 9 10
7 7 7 6 7 7 7 6 6 7 8 8 8 7 7 8 7 7 7 6 6 5 6 6 7 6 6 6 7 7 7 7 8 8 9 10 10 10 10 10 10 11 11 10 10 9 9 9 9 9 9 10 10 10 10 10 11 10 10 10 10 10 10 10 10 10 9 9 8 8 7 7 7 7 7 7 7 7 8 8 8 8 8 8 8
8 7 7 7 6 6 7 7 7 7 8 8 8 7 7 7 7 7 7 7 6 5 5 5 5 5 5 6 6 6 6 7 7 8 8 8 9 9 9 9 9 9 10 9 8 8 8 8 8 8 9 9 10 10 10 10 10 9 9 9 9 9 10 9 9 9 9 8 8 7 6 6 6 6 6 6 6 7 7 7 7 7 7 7 7
8 7 7 7 6 6 6 7 7 7 8 8 8 7 7 7 7 7 7 7 6 5 5 5 5 5 5 5 5 6 6 6 7 7 7 7 8 8 8 8 8 8 8 8 7 8 8 8 8 8 8 9 9 10 10 9 9 9 9 9 9 9 9 9 8 8 8 7 7 6 6 6 6 6 6 6 6 6 6 6 7 6 7 7 7
7 7 7 7 6 6 6 6 6 7 7 7 7 7 6 6 6 7 7 7 7 6 6 6 5 5 5 5 6 6 6 6 6 6 6 7 7 7 7 7 7 7 7 7 7 7 8 7 7 8 8 9 9 9 9 8 8 8 9 9 9 8 8 8 8 7 7 6 6 6 6 6 6 6 6 6 6 6 6 6 6 6 6 6 6
7 7 7 7 7 6 6 6 6 6 6 6 6 6 6 6 6 6 5 6 6 6 6 6 6 5 5 6 6 6 6 6 6 6 6 6 6 6 6 7 7 7 7 7 7 7 7 7 7 7 8 8 8 8 8 8 8 8 8 8 8 8 8 7 7 7 6 6 6 5 5 5 5 5 6 5 5 6 5 6 6 5 5 6 6
7 6 6 6 6 6 6 6 6 6 6 6 6 5 5 6 5 5 5 5 5 5 6 6 6 5 5 6 6 6 6 6 6 6 6 6 6 6 6 6 6 7 7 7 7 7 7 7 7 7 7 7 7 7 7 7 8 7 7 7 7 7 7 7 7 6 6 6 5 5 5 5 5 5 5 5 5 5 5 5 5 5 5 6 6
7 6 6 6 6 6 6 5 5 5 5 5 5 5 5 5 5 5 5 5 5 5 5 5 5 5 6 6 6 6 6 6 6 6 6 6 6 6 6 6 6 6 7 7 7 6 6 6 6 6 7 7 7 7 7 7 7 7 6 6 6 6 6 6 6 6 5 5 5 5 5 5 5 5 5 4 4 4 4 4 5 5 5 6 6
6 6 6 6 6 6 6 6 5 5 5 4 4 4 4 5 5 5 5 5 5 5 5 5 5 5 6 6 6 6 6 6 6 6 6 6 6 6 6 6 6 6 6 6 7 6 6 6 6 6 6 6 6 6 6 6 6 6 6 6 6 6 6 6 5 5 5 5 5 5 4 4 4 4 4 4 4 4 4 4 4 5 5 6 6
6 6 6 6 6 6 6 6 5 5 5 5 5 4 4 4 4 4 5 5 5 5 5 5 5 5 5 6 6 5 6 6 6 6 6 6 6 6 6 6 6 6 6 6 6 6 6 6 6 6 6 6 5 5 5 5 5 5 5 5 5 5 5 5 5 5 5 5 4 4 4 4 4 4 4 4 4 4 4 4 4 5 5 5 5
6 6 6 6 6 6 5 5 5 5 5 5 5 5 5 4 4 4 4 4 4 5 5 5 5 5 5 5 5 5 5 5 5 5 5 5 5 6 6 6 6 6 6 6 6 6 6 5 5 5 5 5 5 5 5 5 5 5 4 4 4 4 4 4 4 4 4 4 4 4 3 3 3 3 3 3 4 4 4 4 4 4 5 5 4
6 6 6 6 6 6 5 5 5 5 5 5 5 5 4 4 4 4 4 4 4 4 4 4 4 4 4 4 5 5 5 5 5 5 5 5 5 5 5 6 6 5 5 6 6 5 5 4 4 4 4 4 4 4 4 4 4 4 4 4 4 4 4 4 4 4 4 4 3 3 3 3 3 3 3 3 3 4 4 4 4 4 5 5 4
6 6 6 6 6 6 5 5 5 5 5 5 5 5 4 4 4 4 4 4 4 4 4 4 4 4 4 4 4 4 4 4 4 5 5 5 5 5 5 5 5 5 5 5 5 4 3 3 3 2 3 3 3 3 3 3 4 4 4 3 3 3 3 3 3 3 3 3 3 3 3 3 3 3 3 3 4 4 4 4 4 4 4 5 4
6 6 6 6 6 6 5 5 5 5 5 5 5 5 4 4 4 4 4 4 4 4 4 4 4 3 3 3 3 3 3 4 4 4 4 4 4 4 4 4 4 4 4 4 3 2 2 2 2 2 2 2 2 2 2 2 3 3 3 3 3 3 3 3 3 3 3 2 2 2 2 2 3 3 3 3 4 4 4 4 4 4 4 4 4
6 6 6 6 6 6 6 5 5 5 5 5 5 4 4 4 4 4 4 4 4 4 4 3 3 3 3 3 3 3 3 3 3 4 4 4 4 4 4 3 3 3 2 2 2 1 1 1 1 1 1 1 1 1 1 1 2 2 2 2 2 2 2 2 2 2 2 2 2 2 2 2 2 3 3 3 3 3 4 4 4 3 3 4 4
6 6 6 6 6 5 5 5 5 5 5 5 5 5 4 4 4 4 4 4 4 4 3 3 3 3 3 3 3 3 3 3 3 3 4 4 4 4 3 3 2 2 2 2 2 1 1 1 1 1 1 1 1 1 1 1 1 2 2 2 2 2 2 2 2 2 2 2 2 2 2 2 2 3 3 3 4 4 3 3 3 3 3 3 4
6 6 5 5 5 5 5 5 5 5 5 4 4 4 4 4 4 4 4 4 4 4 3 3 3 3 3 3 2 2 2 2 3 3 3 3 3 3 2 2 2 2 2 1 1 1 1 0 0 0 0 0 0 1 1 1 1 1 2 2 2 2 2 2 2 2 2 2 2 2 2 2 2 3 3 3 3 3 3 3 3 3 3 3 4
6 5 5 5 5 5 5 5 5 5 5 4 4 4 4 4 4 4 4 4 4 3 4 4 3 3 3 2 2 2 2 2 1 1 1 1 1 1 1 1 1 1 1 0 1 1 1 0 0 0 0 0 1 1 1 1 1 1 1 1 1 1 1 1 1 2 2 2 2 2 2 2 2 3 3 3 3 3 3 3 3 4 4 3 3
5 5 5 5 5 5 5 5 5 5 5 4 4 4 4 4 4 4 4 4 4 3 4 4 3 3 2 2 2 2 2 1 1 1 1 1 1 1 1 1 1 1 1 1 0 1 0 0 0 0 0 1 1 1 1 1 1 1 1 1 1 1 1 1 1 1 1 2 2 2 2 2 2 3 3 3 3 3 3 3 3 3 3 3 3
5 5 5 5 5 5 5 5 5 5 5 4 4 4 4 4 4 4 4 4 3 3 3 3 3 3 3 2 2 2 2 2 1 1 1 1 1 2 2 1 1 1 1 1 1 0 0 0 0 1 1 1 1 1 1 1 1 1 1 1 1 1 1 1 1 1 1 1 2 2 2 2 2 3 3 3 3 3 3 3 3 3 3 3 3
5 5 5 5 5 5 5 5 5 5 5 5 4 4 4 4 4 4 4 4 4 4 4 3 3 3 3 3 2 2 2 2 2 1 1 1 2 2 2 2 2 1 1 1 1 1 1 0 0 0 1 1 1 1 1 1 1 1 1 1 1 1 1 1 1 1 1 1 1 2 2 2 2 2 2 2 3 3 3 3 3 3 3 3 3
5 5 5 5 5 5 5 5 5 5 5 5 5 5 4 4 4 4 4 4 4 4 4 4 3 3 3 3 3 2 2 2 2 2 2 1 1 1 1 2 2 1 1 1 1 1 1 0 0 0 0 1 1 1 1 1 1 1 1 1 1 1 1 1 1 1 1 1 1 2 2 2 2 2 2 2 2 3 3 3 3 3 3 3 2
5 5 5 5 5 5 5 5 5 5 5 5 5 5 5 4 4 4 4 4 4 4 4 4 3 3 3 3 3 3 3 2 2 2 2 2 2 2 2 2 2 1 1 1 1 1 1 1 0 0 0 0 0 0 1 1 1 1 0 1 1 1 1 1 1 1 1 1 1 2 1 2 2 2 2 2 2 3 3 3 3 3 3 3 3
4 4 5 5 5 5 5 5 5 5 5 5 5 5 5 4 4 4 4 4 4 4 4 4 4 4 3 3 3 3 3 3 3 3 2 2 2 2 2 2 2 2 1 1 1 1 1 1 1 0 0 0 0 0 0 0 0 0 0 0 0 0 0 0 0 1 1 1 1 1 1 1 2 2 2 2 2 3 3 2 2 2 2 2 2
4 4 4 5 5 5 5 5 5 5 5 5 5 5 5 4 4 4 4 4 4 4 4 4 4 4 4 4 3 3 3 3 3 3 3 2 2 2 2 2 2 2 1 1 1 1 1 1 1 1 0 0 0 0 0 0 0 0 0 0 0 0 0 0 0 0 0 1 1 1 1 1 1 1 2 2 2 2 2 2 2 2 2 2 2
4 4 4 4 5 5 5 5 5 5 5 5 5 5 5 5 5 5 5 5 4 5 4 4 4 4 4 4 4 3 3 3 3 3 3 3 3 2 2 2 2 2 1 1 1 1 1 1 1 1 1 0 0 0 0 0 0 0 0 0 0 0 0 -0 0 0 0 0 0 0 1 1 1 1 1 1 1 2 1 1 1 1 1 2 2
4 4 4 4 5 5 5 5 5 5 5 5 5 5 5 5 5 5 5 5 5 5 5 4 4 4 4 4 4 4 4 3 3 3 3 3 3 3 2 2 2 2 1 1 1 1 1 1 1 1 1 0 0 0 0 0 0 0 0 0 0 0 -0 -0 -0 -0 0 0 0 0 0 0 0 1 1 1 1 1 1 1 1 1 1 2 2
4 4 4 4 4 5 5 5 5 5 5 5 5 5 5 4 5 5 5 5 5 5 5 5 5 5 4 4 4 4 4 4 4 4 3 3 3 3 3 2 2 2 2 1 1 1 1 1 1 1 0 0 0 0 0 0 0 0 0 0 -0 -0 -0 -0 -0 -0 -0 -0 -0 -0 -0 -0 -0 0 0 0 0 1 1 1 1 1 1 1 1
4 4 4 4 4 4 4 4 4 5 5 5 5 5 5 4 5 5 5 5 5 5 5 5 5 5 5 5 4 4 4 4 4 4 4 4 3 3 3 3 3 2 2 1 1 1 1 0 0 0 0 0 0 0 0 0 0 0 0 -0 -0 -0 -1 -1 -1 -1 -1 -1 -1 -1 -1 -1 -0 -0 -0 -0 -0 0 0 0 0 1 1 1 1
5 4 4 4 4 4 4 4 4 5 4 4 5 5 4 4 5 5 5 4 5 5 5 5 5 5 5 5 5 4 4 4 4 4 4 4 4 4 3 3 3 3 2 2 2 1 1 1 0 0 -0 -0 0 0 0 0 0 0 0 -0 -1 -1 -1 -1 -1 -1 -1 -1 -1 -1 -1 -1 -1 -1 -1 -0 -0 -0 -0 -0 -0 0 1 1 1
Height
800 799 797 796 795 794 793 791 790 789 789 789 788 788 789 790 791 795 799 800 799 799 799 800 801 802 803 805 808 810 811 812 813 814 816 818 820 823 824 825 827 827 828 830 831 832 833 834 835 836 837 838 840 841 842 843 845 846 847 849 850 851 852 853 853 854 856 858 859 860 860 861 863 863 863 864 864 864 865 866 866 867 868 869 869
799 798 797 796 795 794 792 791 789 787 787 789 790 789 788 788 790 793 796 798 799 798 798 799 800 801 803 804 807 809 810 812 813 814 816 818 820 822 824 825 826 827 828 829 830 831 833 833 834 835 837 838 839 840 841 842 843 845 846 848 849 850 852 853 853 854 855 858 859 860 860 861 862 863 863 863 864 864 865 865 866 867 868 868 869
799 797 797 795 794 793 792 790 789 787 787 789 790 789 787 789 792 795 797 798 798 798 798 798 799 800 802 803 805 808 810 812 813 815 817 819 821 822 824 824 825 826 827 828 830 831 832 833 834 835 836 837 838 839 840 841 842 844 845 847 848 850 851 852 853 853 855 856 858 859 860 860 861 862 863 863 863 864 865 865 866 866 866 867 868
799 798 796 795 794 793 792 791 790 789 789 789 790 788 788 790 793 795 797 797 797 797 798 799 800 801 801 803 805 807 809 811 813 815 817 819 821 822 823 824 825 825 827 828 829 830 831 832 833 835 836 837 838 839 839 841 842 843 845 846 848 849 850 852 853 853 854 855 857 858 859 859 861 861 862 862 862 863 864 865 865 866 866 866 867
800 798 796 795 793 793 792 791 790 790 789 789 789 788 788 790 792 794 795 795 795 796 797 799 802 803 803 803 805 807 809 811 813 815 817 819 820 821 822 823 824 825 826 827 828 830 831 832 833 834 835 836 837 838 839 840 841 842 844 846 847 848 849 851 852 853 854 855 856 857 858 859 860 861 861 862 862 863 863 864 864 865 865 866 867
800 798 796 795 793 792 791 790 790 790 789 788 788 788 788 789 790 792 794 794 794 795 796 798 802 804 804 803 805 807 809 811 812 814 816 818 819 820 821 822 823 824 826 827 828 829 830 831 832 833 834 835 836 837 838 839 840 841 843 845 846 847 849 850 851 852 853 854 855 856 857 858 859 860 860 861 862 862 863 863 864 864 865 865 866
801 798 796 795 793 792 792 791 790 790 789 789 788 788 788 789 789 791 792 793 794 794 795 797 800 803 804 804 806 807 809 810 812 814 815 817 818 819 820 821 822 823 825 826 827 829 830 830 831 832 834 835 836 836 837 838 839 841 842 843 845 846 848 849 850 852 853 853 854 855 856 857 858 859 859 860 861 861 862 862 863 863 864 864 865
801 799 797 795 793 792 792 791 791 790 790 789 789 789 789 789 789 790 791 793 793 794 795 797 799 802 803 805 806 807 809 810 812 813 815 816 817 819 820 821 822 823 824 825 827 828 829 830 831 832 833 834 835 836 836 837 839 840 841 842 843 845 846 848 849 850 852 852 853 854 855 856 856 857 858 858 859 860 860 860 861 862 863 863 864
802 799 797 796 794 792 792 791 791 790 790 789 789 789 789 789 789 790 791 792 793 794 795 798 800 801 803 805 806 807 809 810 811 813 814 816 817 818 820 820 821 822 823 825 827 827 828 829 830 832 833 833 835 835 836 837 838 839 840 841 842 844 845 847 848 849 850 851 852 853 854 854 855 856 856 857 858 858 858 859 860 861 862 862 863
803 800 798 797 795 793 792 792 791 791 790 790 790 790 790 791 791 791 792 792 792 794 796 798 800 802 803 805 806 807 808 809 811 813 814 816 817 818 819 820 821 822 823 824 826 827 828 829 831 832 833 834 834 835 836 837 838 839 840 840 842 843 844 845 847 848 849 850 851 851 852 852 853 854 855 856 856 857 857 858 859 860 860 861 861
805 802 800 799 797 795 794 793 792 792 791 791 791 791 792 793 793 793 793 793 793 794 796 797 800 802 804 805 806 807 808 810 811 813 814 816 817 818 819 820 821 822 823 824 825 827 828 830 831 832 833 834 835 835 836 837 838 839 840 841 842 842 843 844 845 847 847 848 849 850 851 851 852 853 854 854 855 855 856 857 858 859 859 859 859
807 805 803 801 799 797 796 795 794 793 793 793 792 792 792 794 794 794 794 794 794 795 796 798 800 802 804 805 806 807 809 810 812 813 815 816 817 818 819 820 821 822 823 824 825 826 828 830 831 833 834 835 836 836 837 838 839 840 841 841 842 842 843 844 845 846 846 847 848 849 850 850 851 852 852 853 854 854 855 856 857 857 858 858 858
809 807 805 803 801 799 798 797 796 795 795 795 794 794 794 794 795 795 794 795 796 797 798 800 801 803 804 806 807 808 810 811 813 814 815 816 817 818 819 820 821 822 823 824 825 827 828 830 832 833 834 835 836 837 838 839 840 841 841 842 843 843 844 844 844 845 846 846 847 848 848 849 850 851 851 852 853 854 854 855 855 856 856 857 857
811 809 807 805 803 802 800 799 798 798 797 797 796 796 796 796 796 796 795 796 797 798 800 802 804 804 805 806 808 809 811 812 813 815 816 817 818 819 820 821 822 823 824 825 826 828 829 830 832 833 834 836 837 838 839 840 840 841 842 843 843 844 844 844 845 845 846 846 847 847 848 849 849 850 851 852 853 854 854 854 854 855 855 856 856
813 811 809 807 805 804 803 802 801 800 800 799 799 799 799 799 799 798 798 798 799 800 802 804 806 807 807 808 808 810 812 813 814 815 816 817 819 820 820 821 822 823 825 826 827 828 830 831 832 833 834 836 837 838 839 840 841 841 842 843 843 844 844 845 845 845 846 846 847 847 848 849 849 850 851 852 853 853 853 853 853 854 854 855 855
815 813 812 810 808 807 806 805 804 803 803 802 802 801 801 801 801 801 800 801 803 804 804 806 808 809 809 810 810 811 813 814 815 816 817 818 820 821 822 822 823 824 825 826 828 828 830 831 832 833 834 835 836 837 838 840 840 841 842 843 843 844 844 844 845 845 846 846 847 847 848 848 849 850 850 851 852 852 852 852 852 853 854 854 855
818 817 815 813 812 810 809 808 807 807 806 805 805 805 804 804 804 804 803 804 806 807 807 808 810 811 811 812 812 813 814 816 818 818 818 819 820 821 823 823 824 825 825 826 828 829 830 832 833 834 835 835 836 837 838 839 840 840 841 842 843 844 844 844 845 845 846 846 846 847 847 848 848 849 850 851 851 852 852 852 852 853 853 853 853
822 820 818 817 815 813 812 811 810 810 809 809 809 809 808 808 808 808 807 806 807 809 810 811 812 813 813 814 815 815 817 819 820 820 820 821 822 823 824 825 826 826 826 827 829 830 832 833 834 834 835 836 836 837 838 839 839 839 840 841 842 843 844 844 845 845 846 846 846 847 847 847 848 849 849 850 851 851 852 852 853 853 852 852 852
826 824 822 820 818 816 815 814 814 813 813 813 812 812 812 812 812 812 811 809 810 811 813 813 814 815 816 816 817 818 819 821 822 823 823 824 825 826 827 828 829 830 829 830 831 833 834 834 835 835 836 837 837 837 838 838 838 839 840 840 841 843 844 844 845 846 846 846 847 847 847 848 848 849 849 850 850 851 852 852 853 853 852 852 853
829 828 826 823 821 820 819 818 817 816 817 817 816 816 816 816 816 815 815 814 813 814 815 815 816 818 819 820 820 820 822 823 824 825 826 826 827 828 828 829 830 831 832 832 834 835 836 835 836 836 837 838 838 838 838 838 838 839 840 840 841 842 843 844 845 846 846 846 846 847 848 848 849 849 849 850 850 851 852 852 853 853 853 853 853
832 830 829 827 825 823 822 822 821 821 821 821 820 820 820 819 819 819 819 818 817 817 817 817 818 821 822 823 823 823 825 826 827 828 827 827 828 829 829 830 830 832 833 834 835 836 836 837 837 837 838 839 839 839 839 839 839 839 840 840 841 842 844 844 845 846 846 846 847 848 848 849 849 849 850 850 851 852 852 853 853 853 853 853 853
835 833 831 830 828 827 826 825 825 825 825 824 824 824 824 824 823 823 823 822 822 822 820 820 822 824 825 826 825 826 828 829 830 829 828 827 828 829 830 831 832 832 834 835 836 836 837 837 838 838 839 840 840 840 840 840 840 840 841 841 842 843 844 845 846 847 847 847 848 848 849 850 850 850 851 851 852 853 853 853 853 853 853 853 853
837 835 834 833 832 831 830 829 828 828 828 827 827 827 828 828 827 827 827 826 826 826 825 826 826 827 828 828 828 829 830 831 830 830 829 829 830 831 832 833 833 834 835 836 837 837 837 838 839 840 841 841 841 841 841 841 842 842 843 843 844 845 846 846 847 847 847 848 849 849 850 850 850 851 852 852 853 853 854 854 854 854 854 854 854
839 838 837 837 836 835 834 833 832 832 832 831 831 831 831 831 831 831 831 830 830 830 830 830 830 830 831 831 831 832 833 832 831 831 831 833 833 834 835 835 836 835 836 838 839 839 839 839 840 841 842 842 842 842 843 844 844 844 845 846 846 847 847 848 848 848 848 849 849 850 850 851 851 852 852 853 854 854 854 855 855 855 855 854 855
842 841 840 840 840 839 838 837 837 836 836 835 835 835 835 835 834 834 834 833 833 833 834 834 834 834 835 835 835 835 835 834 834 834 834 835 836 837 837 838 838 838 839 840 841 841 840 840 841 843 843 843 843 844 845 845 846 846 847 847 848 848 849 849 850 850 850 850 850 851 851 851 852 852 853 854 854 855 855 856 856 856 856 856 856
846 845 844 843 843 843 842 841 841 840 840 839 839 838 838 838 838 838 838 837 836 836 837 838 837 837 838 838 838 838 837 837 837 838 838 838 839 839 840 840 840 841 841 841 842 842 842 842 843 844 844 844 845 846 846 847 847 847 848 848 849 849 850 850 851 851 851 851 851 852 852 852 853 853 854 854 855 855 856 857 857 857 857 858 858
849 849 848 847 847 846 846 845 845 844 844 843 843 842 842 841 841 841 841 841 840 839 839 840 840 840 840 840 840 841 841 841 841 841 841 841 841 842 842 842 842 842 842 843 843 843 844 844 844 845 845 846 847 847 847 848 848 848 849 849 850 851 851 851 851 851 852 852 852 852 852 853 853 854 855 855 856 856 857 858 858 858 859 859 859
853 853 852 851 851 850 849 849 848 847 847 847 846 846 846 845 844 844 845 845 844 843 843 842 842 842 843 842 842 843 843 843 843 843 843 843 843 843 843 843 843 843 843 844 844 845 845 845 845 846 846 847 848 848 848 849 849 850 850 851 851 852 852 852 852 852 853 853 853 853 853 854 854 855 856 856 857 858 858 859 859 859 859 860 860
856 856 856 855 855 854 853 852 852 851 851 850 850 850 850 849 848 848 849 849 848 848 847 846 846 845 845 845 845 845 844 844 845 844 844 844 844 844 844 844 844 844 844 845 845 846 846 846 846 847 848 848 849 849 849 850 850 851 851 852 852 852 852 852 853 853 854 854 854 854 854 855 856 856 857 858 859 859 859 859 860 860 860 860 860
860 859 859 859 858 857 857 856 856 855 855 855 854 854 854 853 852 852 852 852 852 851 850 850 849 848 847 847 846 846 846 846 846 845 845 845 845 845 845 845 846 845 845 846 846 846 847 847 848 849 849 849 849 850 850 851 851 852 852 852 852 853 853 853 854 855 855 855 855 855 856 856 857 858 859 859 860 860 860 860 860 860 860 860 861
863 862 862 862 861 861 860 860 859 859 859 858 858 858 857 857 856 855 855 855 854 853 853 852 851 850 849 847 847 848 848 847 847 846 846 847 847 847 847 847 847 847 847 847 847 847 847 848 849 850 850 850 850 851 852 852 852 852 853 853 853 853 854 855 855 856 856 856 856 857 857 858 859 859 860 860 860 861 861 860 861 861 861 861 861
865 865 865 865 864 863 863 863 862 862 862 862 861 861 860 860 859 858 858 857 857 856 855 855 854 852 851 849 849 849 849 849 849 848 848 849 849 849 849 849 849 849 849 848 848 848 848 848 849 850 851 851 852 852 852 853 853 853 853 853 854 855 855 856 856 857 857 857 857 858 859 859 859 860 860 860 860 861 861 862 862 862 862 862 862
867 867 867 867 866 866 865 865 865 865 864 864 864 863 863 862 861 861 860 860 859 858 857 856 856 854 853 852 851 851 851 851 851 851 851 851 851 852 852 851 850 850 849 849 848 848 849 850 850 851 852 852 853 853 853 853 853 853 854 854 855 856 856 857 857 857 858 858 858 859 859 860 860 860 860 861 861 862 863 863 863 863 863 862 863
869 869 869 869 868 868 867 867 867 867 867 866 866 865 865 864 863 863 862 861 861 860 859 858 858 856 855 854 854 854 853 853 853 853 853 853 853 853 853 852 851 850 850 850 850 850 851 851 852 853 853 853 853 853 854 854 854 854 855 855 856 856 857 857 858 858 859 859 859 859 860 860 860 861 861 862 863 863 864 864 863 863 863 863 863
872 871 871 871 870 870 870 869 869 869 869 868 868 868 867 866 865 864 863 863 862 862 861 860 860 859 858 857 856 856 856 855 855 855 855 855 854 854 854 853 852 851 851 851 851 852 853 853 854 854 854 854 854 855 855 856 856 856 856 856 857 857 858 858 859 859 859 859 860 860 860 860 861 862 863 863 864 864 864 864 864 864 864 864 864
874 873 873 873 872 872 872 871 871 871 871 871 870 870 869 868 868 866 866 865 864 863 863 862 861 861 860 859 858 858 857 857 857 856 856 856 855 855 854 854 854 853 853 854 854 854 855 855 855 856 856 856 856 857 857 857 857 857 857 857 858 858 859 859 860 860 860 860 860 860 860 861 862 863 864 864 864 864 864 864 864 864 864 865 865
876 875 875 875 874 874 874 873 873 873 873 873 872 872 871 870 870 869 868 867 866 866 865 864 863 863 862 861 860 859 858 857 857 857 856 856 855 855 855 855 856 856 856 856 856 856 856 857 857 857 857 857 857 858 858 858 858 858 858 858 858 859 859 860 860 860 860 860 861 861 862 863 864 864 865 865 865 865 864 864 865 865 866 867 867
878 877 877 877 876 876 876 875 875 875 875 874 874 873 873 872 871 871 870 869 868 868 867 866 866 865 864 863 861 860 859 858 858 857 857 856 856 856 856 857 858 858 858 858 858 858 858 858 858 858 858 858 858 859 859 859 859 859 860 860 860 860 861 861 861 861 861 862 863 864 865 865 865 865 865 865 865 865 865 865 866 867 868 868 869
879 879 879 878 878 877 877 877 877 877 876 876 876 875 874 874 873 872 872 871 870 869 869 868 868 867 866 865 864 862 861 860 859 859 858 857 858 858 858 859 859 859 860 860 860 859 859 859 859 859 859 859 860 860 860 860 861 861 861 862 862 862 862 862 863 863 863 864 865 866 866 866 866 866 866 866 866 867 867 867 868 868 869 870 870
881 880 880 880 879 879 879 878 878 878 878 877 877 876 876 875 874 874 873 872 872 871 870 870 869 869 868 867 866 864 863 862 861 861 860 860 860 861 861 861 861 861 861 861 861 861 861 860 860 860 860 860 861 861 861 861 862 862 863 863 863 863 863 863 864 865 865 866 866 866 867 867 867 867 867 867 867 868 868 869 869 870 871 871 872
882 881 881 881 881 880 880 880 880 879 879 878 878 878 877 877 876 875 875 874 873 873 872 872 871 870 869 868 867 866 866 865 864 864 863 863 863 863 863 863 863 863 863 862 862 862 862 862 862 861 861 861 861 862 862 862 863 864 864 864 864 864 865 865 865 866 866 867 867 867 868 868 868 868 868 868 868 869 869 870 871 871 872 872 872
883 883 883 882 882 882 882 881 881 881 880 880 879 879 878 878 877 877 876 875 874 874 874 873 872 872 871 870 869 868 868 867 867 867 866 866 865 865 865 865 865 865 864 864 864 864 863 863 863 863 863 863 863 863 863 863 864 864 865 865 865 866 866 867 867 867 867 868 868 868 868 868 868 868 868 868 869 870 870 871 872 872 872 873 872
883 883 883 883 883 883 883 882 882 882 881 881 880 879 879 878 878 877 877 876 876 875 874 874 873 873 872 871 870 870 869 869 869 869 869 868 868 867 867 866 866 866 866 865 865 865 865 864 864 864 864 864 863 864 864 864 864 865 865 865 866 867 867 868 868 868 868 869 868 868 868 868 868 869 869 869 870 871 871 872 872 872 872 873 872
884 884 884 884 884 884 883 883 883 882 882 881 881 880 879 879 878 878 877 877 876 876 875 875 874 874 873 872 872 871 871 871 870 870 870 869 869 869 868 868 867 867 867 866 866 866 865 865 865 865 865 864 864 864 865 865 865 865 866 866 867 868 868 868 869 869 869 869 869 869 869 869 869 869 870 870 870 871 872 872 872 872 872 872 872
884 884 884 884 884 884 884 884 883 883 882 882 881 881 880 879 879 878 878 877 877 876 876 875 875 874 874 873 873 872 872 871 871 871 871 870 870 870 869 869 868 868 867 867 867 866 866 866 865 865 865 865 865 865 865 865 866 866 866 867 868 868 868 869 869 869 869 869 869 869 869 870 870 870 870 871 871 872 872 873 873 872 872 871 871
885 885 885 885 885 884 884 884 884 883 883 882 882 881 881 880 879 879 878 878 877 877 876 875 875 874 874 873 873 872 872 872 871 871 871 871 870 870 870 869 869 868 868 867 867 867 866 866 866 866 866 865 865 865 865 866 866 866 867 867 867 868 868 869 869 869 869 869 869 869 870 870 870 871 871 871 872 872 873 873 872 872 872 871 870
885 885 885 885 885 885 885 884 884 883 883 882 882 881 881 880 880 879 878 878 877 876 876 875 875 874 874 873 873 872 872 872 871 871 871 871 870 870 870 869 869 868 868 867 867 867 866 866 866 866 866 865 865 865 865 866 866 866 866 867 867 867 868 868 868 869 869 869 869 869 870 870 871 871 871 872 872 873 873 873 872 872 871 870 870
886 886 886 886 885 885 885 884 884 884 883 882 882 881 881 880 880 879 878 877 877 876 875 875 874 873 873 872 872 872 872 871 871 871 870 870 870 870 869 869 869 868 868 867 867 867 866 866 866 866 865 865 865 865 865 865 865 865 866 866 866 867 867 867 868 868 868 868 869 869 870 870 871 871 871 872 872 872 872 872 871 871 870 870 869
886 886 886 886 885 885 885 884 884 884 883 883 882 881 881 880 879 878 878 877 876 875 875 874 873 873 872 871 871 871 870 870 870 870 870 870 869 869 869 869 869 868 868 867 867 866 866 866 866 865 865 865 865 865 865 865 865 865 865 865 865 865 866 866 866 867 867 868 869 869 870 870 870 871 871 871 871 871 871 871 870 870 870 869 869
886 885 885 885 885 885 885 884 884 883 883 883 882 881 881 880 879 878 877 876 876 875 874 873 872 872 871 870 869 869 869 869 869 869 869 869 868 868 868 868 868 868 868 867 867 866 866 866 866 865 865 865 865 865 865 865 865 865 865 865 864 864 864 865 865 866 867 867 868 869 869 870 870 870 870 870 870 870 870 869 869 869 869 869 869
885 885 885 885 885 884 884 884 883 883 883 882 882 881 880 880 879 878 877 876 875 874 873 872 871 870 869 869 868 867 866 867 867 867 868 867 867 867 867 867 867 867 867 867 867 866 866 866 866 865 865 865 864 864 864 864 864 864 864 864 863 863 863 863 864 865 866 867 867 868 869 869 869 869 870 869 869 869 868 868 868 868 868 868 869
Wind_Speed
12 11 10 9 8 8 6 4 4 5 6 8 11 12 12 12 13 14 17 16 14 15 15 13 15 17 18 16 16 15 15 14 13 14 14 14 12 11 11 12 11 11 12 12 12 11 10 10 11 11 10 10 11 11 11 12 12 11 10 9 10 10 7 4 2 4 6 6 6 6 7 6 5 5 6 6 7 7 6 5 6 7 6 6 7
13 12 10 9 9 8 6 4 3 1 5 8 11 12 12 11 12 14 15 15 15 16 16 15 15 17 17 17 17 16 15 14 13 14 14 14 13 12 12 12 11 12 12 12 12 11 10 9 10 11 10 10 10 10 10 11 11 11 11 10 10 10 9 6 3 3 6 7 7 7 8 8 6 6 6 6 6 6 5 5 5 6 7 7 6
13 12 11 11 9 8 7 6 5 2 4 9 11 11 9 7 9 12 14 14 14 14 15 16 17 17 17 17 17 17 16 15 15 15 15 15 15 13 12 11 12 13 12 11 11 11 10 10 10 11 11 10 10 10 10 11 11 11 11 10 10 10 10 8 5 3 5 6 8 8 8 10 8 6 7 7 7 6 6 6 5 5 5 6 6
15 14 14 14 11 9 7 6 5 4 5 7 8 8 8 8 10 13 14 13 12 11 12 15 16 16 17 17 17 17 17 16 16 16 16 16 15 13 12 11 11 11 11 10 9 10 10 10 10 11 10 10 10 11 11 11 11 10 10 10 9 10 11 10 7 4 4 5 8 8 8 9 8 7 7 8 8 8 7 7 6 5 5 5 6
15 16 16 16 14 12 9 6 6 7 7 6 6 7 7 9 12 13 14 13 12 12 12 13 14 15 16 17 17 16 15 15 15 16 15 14 12 11 11 11 11 10 9 8 9 10 10 10 10 11 11 11 11 12 11 11 10 10 9 9 9 10 11 11 8 6 5 4 6 8 8 7 7 8 8 7 7 7 7 8 7 7 7 8 8
15 16 16 16 16 16 13 9 8 8 7 6 6 6 6 8 12 13 13 14 13 13 14 15 14 14 15 15 15 15 14 13 14 14 13 12 10 10 11 12 11 10 8 8 8 9 9 9 10 11 11 11 11 11 11 11 10 10 10 9 9 9 10 10 9 7 6 5 5 6 8 8 7 8 9 9 7 6 7 7 9 9 10 9 9
17 18 17 18 17 17 15 11 9 9 8 7 6 6 6 7 10 13 14 13 13 13 15 17 16 14 14 14 14 14 13 12 13 13 12 12 11 11 12 12 11 9 8 8 8 8 8 10 10 11 11 10 10 10 10 11 10 10 10 10 9 9 10 10 9 8 7 6 5 5 7 8 8 7 9 11 9 7 7 7 7 9 10 11 10
18 19 18 19 19 17 15 13 10 9 8 7 5 6 6 6 9 12 14 14 14 15 17 17 17 16 15 14 14 13 12 12 13 13 13 13 13 12 12 11 10 9 9 9 9 9 9 10 10 10 10 10 10 10 10 10 10 9 10 10 11 11 10 8 9 8 7 7 6 6 6 8 8 8 9 10 9 8 10 9 7 6 7 10 11
19 20 20 19 19 18 16 13 11 9 8 7 6 6 6 7 9 12 14 15 15 16 17 17 16 16 15 13 12 12 12 13 13 13 13 13 13 12 11 11 10 10 11 11 10 9 9 10 11 10 9 8 8 8 8 8 8 8 8 8 9 10 9 8 8 7 7 7 6 6 6 7 7 8 8 9 8 7 9 10 8 6 6 7 8
18 20 22 21 19 18 16 13 11 10 9 7 6 6 5 7 10 11 13 16 15 15 16 17 15 14 14 13 12 12 13 13 13 12 13 12 12 12 11 11 11 12 13 13 12 11 11 11 11 10 9 10 11 11 11 11 10 9 9 8 8 7 7 7 6 6 6 6 5 6 6 5 6 7 7 7 8 7 7 7 6 5 6 5 5
19 20 22 22 20 17 16 14 10 9 8 5 4 4 3 6 9 10 11 13 14 14 15 16 14 13 13 12 11 12 13 13 13 12 11 11 11 12 12 13 14 15 15 15 14 14 15 14 14 14 14 15 15 15 14 13 12 11 11 10 9 8 7 7 7 6 5 4 4 5 4 3 4 5 6 5 7 7 5 4 4 4 5 4 3
21 20 21 23 21 18 17 15 11 9 7 4 1 1 3 5 7 8 9 11 12 12 12 13 13 12 12 12 11 12 13 13 13 11 10 9 10 12 14 16 17 18 17 18 19 20 20 20 20 19 17 16 15 13 13 12 10 9 9 8 7 7 6 6 6 6 5 4 3 3 3 2 2 3 5 5 4 4 3 4 4 4 4 4 3
24 21 20 22 22 19 17 16 14 12 9 7 4 4 6 7 8 8 9 10 11 11 11 12 12 12 12 11 11 11 12 12 12 11 9 8 9 12 17 19 20 20 19 20 23 23 23 21 20 18 16 15 13 12 11 11 10 9 7 7 6 5 4 4 4 4 4 4 4 4 4 3 2 2 3 3 3 3 2 3 2 2 3 3 2
26 23 21 22 22 20 19 18 17 15 12 9 8 8 8 10 9 10 11 11 11 12 12 12 12 12 11 11 11 10 10 11 11 10 9 8 10 14 19 22 22 22 21 23 24 23 21 18 17 16 15 14 14 13 11 10 10 9 8 7 7 6 5 5 4 4 5 5 5 5 5 4 3 3 2 2 2 1 1 2 2 2 2 2 1
26 24 23 23 23 20 19 20 19 17 14 11 11 11 11 12 12 11 13 14 14 15 14 13 12 12 11 10 10 9 9 9 10 9 9 11 13 17 22 24 25 25 24 23 22 20 18 16 16 16 16 15 14 13 12 11 10 10 10 9 9 8 7 7 6 6 6 6 6 6 5 4 2 2 2 1 0 2 2 1 0 0 1 1 0
28 25 23 22 22 20 19 20 19 17 16 14 14 14 14 15 15 14 14 15 15 16 16 15 14 13 13 11 11 10 9 9 9 10 11 14 18 21 23 24 23 22 20 19 18 19 18 18 17 17 16 15 13 11 10 10 9 10 10 10 9 9 9 8 7 7 6 5 5 5 4 3 2 1 1 2 2 1 1 1 1 1 0 1 2
28 26 22 20 22 21 18 19 19 18 18 17 16 15 15 16 16 16 16 16 15 17 18 18 17 16 15 15 15 14 12 11 11 13 15 18 22 24 22 19 17 15 15 16 18 18 18 17 17 17 15 13 11 8 7 7 7 8 9 9 8 9 10 9 8 7 6 5 5 5 4 4 4 4 5 4 3 3 2 2 2 2 2 2 2
26 27 23 21 22 22 19 18 18 18 20 19 16 15 16 16 17 18 20 21 20 20 20 20 20 19 19 19 18 17 16 13 11 13 15 17 19 19 17 15 14 15 16 17 18 17 16 15 15 14 13 11 9 7 7 7 7 8 10 10 10 10 10 10 9 7 6 6 7 7 6 7 6 6 7 6 5 5 4 3 3 2 1 1 1
24 26 25 22 22 22 21 19 18 19 20 20 18 17 17 17 18 19 22 24 25 25 23 24 24 23 22 21 20 19 18 15 13 12 13 13 13 13 13 13 13 14 15 15 15 15 14 12 11 11 9 8 7 7 7 7 7 9 10 11 13 13 12 11 10 9 8 8 8 7 7 7 7 7 7 7 6 5 5 5 4 1 1 1 1
22 23 24 24 22 21 21 21 20 20 20 20 20 20 19 18 19 20 21 24 27 28 27 27 26 25 23 22 21 20 19 17 16 15 14 12 10 9 9 9 10 11 12 12 12 12 11 11 10 9 8 7 6 6 7 6 7 9 9 10 12 14 13 12 11 10 9 8 8 8 7 7 7 7 7 7 6 6 7 7 6 4 2 3 3
22 23 25 25 24 23 23 23 22 22 21 22 23 22 21 21 21 21 22 25 27 28 28 28 27 26 24 22 22 21 18 16 14 12 11 10 8 5 5 5 6 8 10 11 11 12 11 10 10 10 8 7 7 7 8 8 8 9 10 10 12 13 13 12 11 10 10 10 10 10 9 9 8 8 8 8 8 8 8 8 8 8 7 6 4
23 24 25 25 25 24 23 23 23 23 22 22 24 24 23 23 23 23 24 26 27 27 29 28 27 27 26 25 25 23 19 17 15 12 11 9 7 5 5 6 6 6 8 11 12 12 12 11 11 9 8 7 8 8 9 9 10 11 12 13 13 13 13 13 12 12 11 11 10 11 10 10 10 11 11 11 11 11 11 11 11 10 11 10 7
24 26 26 25 25 24 23 23 24 23 22 22 24 25 24 23 24 24 24 26 27 27 28 27 26 26 26 25 25 23 21 20 18 17 15 12 10 9 8 8 7 5 6 9 10 11 11 11 10 9 8 8 9 10 11 12 13 15 16 16 15 15 14 14 13 13 12 11 11 12 11 11 11 12 13 13 13 13 14 14 13 12 12 12 10
25 26 27 26 26 25 26 26 25 25 26 26 28 29 28 28 28 27 27 28 28 28 26 26 26 27 25 24 23 21 20 19 19 18 17 15 13 11 10 9 8 6 7 9 9 10 10 10 10 9 9 10 11 12 13 15 17 18 18 17 16 15 14 14 13 13 13 12 12 12 13 12 12 13 14 14 14 14 14 13 13 13 12 11 10
26 27 27 27 27 26 27 28 28 28 29 29 30 31 31 31 31 30 29 29 29 29 27 26 27 26 24 23 21 20 19 18 18 17 16 15 14 13 11 11 10 9 9 10 10 9 10 10 10 9 10 12 13 14 16 17 18 18 17 16 15 14 14 13 12 11 11 12 12 12 13 14 14 14 15 14 13 12 11 10 11 12 11 9 9
25 26 26 26 26 26 27 28 28 28 27 27 27 27 28 28 28 28 27 27 27 27 26 25 24 24 22 21 19 18 17 16 16 15 14 13 13 12 12 12 11 9 9 9 9 9 9 10 10 10 12 13 14 15 17 18 17 16 15 14 13 14 14 13 12 11 12 13 14 14 14 14 14 13 13 12 11 10 9 8 8 9 8 7 8
24 24 24 25 25 25 26 26 26 26 26 26 26 26 26 27 26 26 25 24 24 24 24 23 22 21 19 17 16 15 14 12 12 11 11 10 9 9 9 9 9 8 7 7 8 8 10 10 11 12 13 14 14 15 16 16 14 14 13 13 13 13 13 13 13 13 14 14 14 14 13 13 12 12 11 11 11 11 9 8 7 7 7 7 7
24 24 24 25 25 25 26 26 26 27 28 27 28 27 27 27 27 26 24 22 21 21 20 20 19 17 15 13 12 11 11 10 9 8 7 6 5 5 5 5 5 5 5 6 8 9 10 11 12 13 13 14 14 15 15 14 13 13 13 13 13 13 13 13 13 14 14 13 13 13 13 13 13 12 12 12 12 11 10 9 9 7 6 6 6
24 24 24 24 25 25 25 25 26 27 27 27 27 26 25 25 26 25 23 21 20 19 18 18 17 14 11 10 9 8 8 8 8 7 6 5 4 4 4 3 4 5 6 7 8 9 11 12 13 13 13 13 14 14 14 13 13 13 13 13 14 13 13 13 13 13 13 13 13 14 14 14 14 13 12 12 12 10 10 9 8 7 6 6 7
22 23 23 23 23 23 23 23 23 24 24 24 24 23 23 22 22 22 21 19 18 18 18 18 17 15 11 8 6 6 6 6 7 7 7 5 5 5 5 6 6 8 9 9 9 11 12 13 13 12 12 12 13 13 13 13 13 13 13 13 13 13 13 13 13 13 12 13 14 15 15 15 13 11 11 11 10 9 10 9 8 7 7 7 7
18 19 20 20 20 21 21 21 20 21 21 21 21 21 20 20 19 18 17 17 17 17 18 18 18 17 16 11 6 5 6 6 6 6 7 7 6 7 7 7 7 8 8 7 9 11 12 13 13 12 11 12 12 13 13 13 13 13 13 13 13 13 13 13 13 13 13 13 14 15 15 14 12 11 11 10 9 9 9 10 9 8 8 7 8
15 15 16 17 18 18 19 19 18 19 19 20 20 19 19 18 17 16 14 14 15 16 17 17 18 19 19 16 10 7 6 6 5 6 7 8 7 7 7 6 5 5 3 3 6 11 12 12 13 12 11 11 11 11 11 11 11 12 13 13 13 13 13 13 13 12 12 13 14 13 13 12 12 11 11 10 10 10 10 9 8 8 8 8 8
15 15 15 15 16 17 17 17 17 17 18 18 18 18 18 18 17 15 14 13 14 15 17 18 19 19 20 19 14 10 8 7 7 7 8 7 7 6 5 2 1 1 0 3 8 11 12 12 12 11 10 10 10 9 10 10 11 12 12 13 13 13 12 12 12 12 12 13 14 13 12 11 11 11 11 11 11 10 9 8 7 7 8 9 9
17 16 15 15 16 16 16 15 15 15 15 16 17 18 19 19 18 17 16 14 15 16 18 19 19 19 19 18 15 12 9 8 7 7 6 7 8 8 8 6 3 2 3 6 10 12 11 11 11 10 10 10 11 11 11 12 12 12 12 12 13 13 13 13 13 13 13 14 14 13 12 11 11 10 10 10 9 8 8 8 8 9 9 10 10
18 17 16 16 16 16 16 15 14 13 13 15 16 18 18 19 18 18 17 15 14 15 16 18 19 19 19 17 15 12 8 6 6 5 5 6 8 9 8 5 5 7 8 10 11 11 10 9 9 8 8 9 10 10 10 10 11 12 12 12 13 13 14 14 14 15 14 13 13 13 13 13 12 10 10 9 8 8 9 9 9 10 10 10 10
18 17 17 16 16 16 16 15 14 13 13 14 15 15 16 16 16 16 16 14 13 12 13 14 15 16 17 17 15 12 9 7 6 5 4 6 9 8 5 5 8 10 10 10 10 9 8 8 7 7 7 7 7 7 6 7 9 12 12 13 13 14 15 14 14 13 13 13 14 14 13 12 10 9 9 10 9 9 8 9 9 9 10 9 8
16 16 16 16 16 15 15 15 14 14 14 13 12 12 13 13 14 14 13 13 13 11 11 12 13 13 16 17 16 14 12 10 8 8 7 8 9 6 5 7 8 9 9 8 8 7 7 7 6 6 6 6 6 6 6 7 10 13 14 14 14 15 14 13 13 13 13 14 14 14 12 10 9 8 8 9 9 9 8 8 8 8 9 8 7
16 16 16 15 15 14 14 14 13 13 13 12 10 10 11 11 12 13 12 12 12 10 8 10 11 11 13 16 16 14 11 9 8 7 7 7 7 7 7 8 8 8 7 7 6 6 6 6 6 6 7 6 6 7 8 10 13 14 14 14 14 14 14 14 14 15 15 13 12 11 10 9 9 8 9 9 10 10 10 10 9 8 8 8 7
15 15 15 14 14 13 12 12 12 11 10 10 9 9 10 10 11 12 12 12 12 10 8 8 9 9 11 14 15 13 11 9 8 8 9 10 10 10 10 10 9 8 7 7 6 6 6 6 6 6 6 6 7 8 10 11 12 12 13 13 12 12 12 12 12 13 12 10 9 8 8 8 8 8 8 9 10 11 12 11 10 9 9 8 8
13 13 13 13 14 14 13 12 11 10 9 9 8 8 9 10 11 12 12 12 12 11 9 9 9 10 12 13 14 12 11 11 12 12 13 14 14 13 13 13 12 11 10 8 7 6 5 5 5 6 6 7 7 9 10 10 10 10 11 11 11 11 12 11 10 10 9 8 8 7 7 7 7 7 7 8 8 9 10 10 10 9 8 8 7
10 11 12 12 12 13 12 11 11 12 12 11 9 8 9 10 10 11 12 12 12 11 10 9 10 12 12 13 13 12 10 10 11 12 14 15 14 14 14 13 13 13 12 11 9 7 6 5 6 7 8 8 9 9 10 10 9 9 9 9 10 10 10 9 9 8 8 7 7 6 6 5 5 5 5 7 8 8 8 8 8 7 7 6 6
6 8 10 11 11 10 9 9 10 11 12 12 12 10 9 8 8 9 11 12 11 10 9 8 10 12 12 12 12 11 9 8 8 9 10 11 11 11 11 11 11 11 11 11 10 9 7 6 6 7 8 9 9 9 10 9 8 8 7 7 8 8 7 7 6 6 6 6 5 5 6 6 5 5 5 6 6 6 6 5 5 5 5 5 4
5 5 7 8 8 8 8 8 8 9 9 10 11 12 10 8 6 7 9 10 10 10 8 8 9 10 11 12 12 11 8 7 7 6 6 7 7 8 8 8 8 8 8 8 8 8 8 7 7 6 7 8 8 8 7 6 6 6 7 6 5 5 5 5 5 4 5 5 5 5 6 6 5 5 5 5 5 5 5 5 4 4 3 3 3
5 4 4 5 5 6 7 6 6 7 9 10 9 10 10 9 6 5 5 7 8 8 8 8 8 9 9 10 11 10 8 6 5 5 5 5 5 5 5 5 5 5 5 5 5 5 6 6 6 6 6 6 6 6 5 4 3 3 4 5 4 3 3 3 3 4 4 4 5 5 5 5 5 5 5 5 4 4 4 4 3 3 2 2 1
5 5 4 4 5 5 6 7 7 7 9 10 8 8 9 9 7 6 5 5 6 6 6 6 8 8 7 7 8 8 8 6 5 4 4 4 4 3 3 3 3 3 3 3 3 3 4 4 4 4 4 3 3 4 4 4 3 2 2 2 2 1 1 1 2 2 2 3 3 4 4 4 4 4 4 4 3 3 3 3 2 2 2 1 1
6 5 5 5 4 5 6 7 8 8 8 9 10 9 8 7 6 6 5 5 5 6 6 5 6 7 7 7 6 6 6 6 5 4 3 3 3 3 3 3 3 3 3 3 3 3 3 2 2 2 2 2 1 1 2 3 4 4 4 5 4 4 3 3 3 2 2 2 3 3 3 3 2 2 3 3 2 2 3 2 2 2 1 1 2
6 5 5 5 4 4 5 6 6 6 6 8 10 10 9 8 7 6 5 4 5 6 7 7 6 6 7 7 7 7 6 5 4 3 3 3 3 3 3 4 4 4 4 4 4 4 3 3 2 2 2 3 2 2 2 2 3 4 5 6 6 6 6 6 5 4 4 4 4 4 3 2 1 2 3 3 3 3 3 2 2 2 1 1 2
4 4 4 4 4 4 5 5 5 5 6 8 9 10 10 10 10 9 7 7 7 7 8 8 8 8 8 8 8 9 8 8 7 5 5 4 4 4 4 4 5 5 5 5 5 5 4 4 3 4 4 4 3 3 2 3 3 4 5 6 7 7 8 7 7 6 6 6 5 5 5 4 3 3 4 4 4 3 3 2 2 2 2 2 3
2 2 2 3 4 4 5 5 5 5 6 8 8 9 10 11 11 11 10 9 9 10 11 11 10 10 10 10 10 10 10 9 9 8 7 7 7 7 7 6 6 6 6 6 6 6 5 5 5 5 5 4 3 2 3 3 3 4 5 5 6 7 8 8 8 7 7 7 6 6 5 5 4 5 6 6 5 4 3 3 2 2 2 2 3
1 1 2 2 3 4 5 5 5 6 7 7 8 9 10 10 10 12 12 12 11 12 13 13 13 12 12 12 12 11 11 10 10 9 9 8 8 8 9 8 8 8 8 7 7 7 6 6 6 6 5 4 3 3 3 3 4 4 5 6 7 7 8 8 9 9 8 8 8 7 6 5 5 5 5 6 5 4 3 3 2 1 1 1 1
3 3 3 4 4 5 5 5 6 6 6 7 8 9 10 10 10 11 12 13 13 13 13 14 14 14 13 13 13 12 11 11 10 10 10 9 9 8 9 9 9 9 9 8 8 7 7 7 7 7 6 5 4 4 4 4 4 5 5 6 6 6 6 7 8 9 9 9 9 8 7 6 6 5 5 5 4 4 3 2 1 1 1 0 1
Wind_Direction
345 338 338 340 337 332 323 309 284 249 234 220 204 194 192 192 192 209 228 231 215 205 202 200 199 200 198 195 189 183 182 184 186 188 186 184 187 192 196 194 192 192 193 191 189 188 187 185 184 185 186 186 187 187 190 195 196 197 197 194 197 199 191 191 160 117 147 167 163 179 199 187 171 183 180 167 162 153 148 150 141 135 138 142 140
342 335 339 347 343 335 323 313 314 243 215 224 218 199 189 191 191 199 214 217 206 200 200 199 198 198 195 191 185 181 180 178 176 176 174 177 184 189 191 190 185 186 190 190 190 190 187 186 188 189 187 185 184 184 188 192 192 194 196 192 191 197 198 194 182 140 147 170 178 184 197 194 184 190 190 182 179 170 162 164 154 153 159 155 155
344 338 346 353 344 330 320 311 317 314 208 215 216 204 191 193 205 215 219 212 203 202 206 202 196 193 190 185 181 177 175 174 173 175 177 179 182 184 184 186 185 186 189 189 190 191 190 190 192 192 189 186 186 189 193 193 193 192 192 191 190 195 200 198 195 172 150 168 186 190 195 199 198 199 198 194 187 178 178 187 182 182 187 176 176
354 355 360 0 351 334 320 306 294 275 238 221 217 210 202 198 204 211 214 214 209 206 210 207 198 193 187 179 175 174 172 173 174 176 177 178 181 183 184 188 189 188 188 187 187 191 190 188 191 192 190 188 187 189 190 191 192 192 191 192 192 194 200 204 206 201 178 172 184 191 195 198 201 205 207 205 198 189 192 205 206 209 221 216 208
358 4 7 2 357 351 339 315 286 264 248 241 237 231 220 207 203 202 203 208 210 205 200 199 201 203 191 177 174 175 172 172 173 174 178 181 183 186 186 186 184 180 180 181 181 184 185 186 190 190 187 186 185 185 187 190 190 190 191 191 193 196 202 208 210 212 213 194 183 194 200 196 200 210 211 208 207 208 210 218 222 223 230 235 235
1 4 6 3 1 360 353 333 307 284 271 268 259 248 234 212 204 204 204 206 206 201 191 188 195 203 191 174 173 175 171 169 170 173 181 184 180 178 176 175 175 175 176 177 176 177 181 185 186 184 183 184 184 184 187 192 191 191 192 191 192 196 202 208 210 213 221 215 194 198 203 201 203 213 216 211 208 216 219 225 233 236 239 241 242
8 8 7 6 3 1 355 342 321 299 285 281 268 254 240 217 204 203 205 205 202 194 188 186 188 190 184 175 175 176 173 173 175 179 183 179 172 169 167 169 174 177 178 175 171 171 175 178 179 182 186 188 188 186 188 191 190 189 193 196 199 202 205 208 209 212 216 215 206 199 200 205 206 210 219 218 216 221 224 227 234 239 245 247 244
14 13 10 8 4 359 355 345 331 313 296 286 275 258 240 217 206 205 203 201 194 187 184 185 184 183 182 181 182 183 182 184 186 185 179 171 167 168 170 177 181 180 176 173 170 171 173 176 180 182 185 189 193 196 196 197 199 203 209 213 215 213 208 205 205 208 211 213 212 204 197 203 204 206 214 216 215 223 226 228 232 234 246 255 255
18 18 14 10 5 4 0 348 338 328 305 287 273 260 243 219 208 205 200 194 187 182 182 184 183 182 185 191 194 195 195 193 189 180 172 170 173 176 181 188 189 182 173 169 170 170 170 175 180 181 183 188 189 184 180 183 194 203 203 202 205 204 199 197 201 203 207 211 210 204 203 204 201 201 206 208 210 219 227 233 239 240 249 260 265
20 20 18 13 8 10 10 358 341 327 310 291 269 254 239 213 202 197 192 187 179 174 175 177 179 182 188 196 198 198 198 193 184 177 177 179 182 185 190 192 186 176 167 163 162 162 166 172 172 166 163 157 145 138 136 137 141 143 138 138 151 165 174 183 189 192 200 206 203 202 210 212 205 205 210 217 226 232 233 236 238 246 259 259 252
22 21 22 19 13 13 15 12 355 334 330 325 283 251 211 194 197 191 181 176 171 169 168 167 172 181 185 188 188 187 189 186 180 180 183 187 189 191 190 183 174 166 161 158 155 154 155 153 145 139 137 133 129 126 124 123 123 122 121 123 128 138 153 166 176 184 189 194 195 203 216 222 218 220 220 226 239 242 238 239 243 252 270 274 246
26 22 23 24 21 18 18 20 17 9 14 30 12 201 156 174 195 184 164 160 161 163 161 159 165 172 171 169 169 171 175 177 177 179 180 185 192 189 181 172 163 159 157 155 152 149 146 141 135 132 130 127 125 124 122 119 117 116 118 121 124 128 140 153 165 175 178 175 174 182 194 193 196 212 210 209 221 229 227 237 251 256 266 283 283
31 26 23 25 26 25 24 27 31 34 47 74 103 124 129 144 162 157 145 147 148 146 148 150 154 156 155 154 154 158 166 170 173 177 179 186 192 183 172 164 159 156 156 154 150 146 143 140 136 132 131 129 128 127 125 122 120 119 118 119 121 118 120 129 139 151 154 148 140 144 153 152 130 152 182 179 170 181 194 204 220 236 250 281 299
33 28 23 26 28 27 29 33 36 42 56 82 99 105 111 119 126 127 127 130 129 128 132 136 138 140 144 147 147 148 156 164 170 178 181 183 188 180 168 160 155 152 151 149 146 144 144 144 143 140 139 138 136 133 133 132 131 130 127 120 116 111 108 112 115 124 133 129 125 135 148 148 126 113 112 100 111 154 174 172 178 191 221 270 307
31 28 28 29 29 26 29 34 38 44 54 69 83 91 97 100 105 112 115 115 114 115 119 121 121 122 125 132 140 140 141 152 166 176 176 175 175 170 163 157 152 149 148 148 148 149 151 155 155 151 147 145 144 140 140 143 142 139 135 129 123 117 113 112 112 116 125 128 129 134 139 138 128 100 85 71 275 259 244 201 193 252 271 293 336
31 30 29 29 29 27 28 34 39 44 52 61 71 80 88 93 97 102 106 106 105 104 105 106 108 108 109 114 124 127 126 135 154 163 165 166 163 157 152 149 147 145 145 146 150 153 157 159 157 152 147 143 140 136 135 140 143 141 135 127 123 122 118 116 117 120 123 129 134 137 134 129 119 109 149 187 214 238 271 23 39 47 74 178 149
34 34 31 30 34 33 30 36 41 44 49 55 59 66 79 89 95 100 106 109 105 99 98 100 101 103 103 103 106 113 117 126 143 153 156 159 158 153 148 142 138 138 140 144 148 150 151 153 150 143 137 132 127 124 126 133 142 145 136 124 118 119 118 117 119 122 127 134 136 138 137 129 118 115 121 129 129 116 91 76 97 112 129 170 161
38 41 40 38 42 42 37 39 46 50 52 54 55 59 70 81 89 96 103 106 103 99 99 101 100 99 99 98 100 106 110 116 133 146 149 149 146 141 136 128 122 124 127 130 135 136 137 140 139 133 129 126 127 133 138 143 149 148 142 134 126 122 122 124 123 122 127 131 129 129 128 123 118 118 117 113 110 109 106 109 120 131 179 217 213
42 47 48 47 49 49 47 45 50 55 57 58 61 63 66 74 81 86 93 99 102 100 97 95 92 91 91 93 98 103 104 107 115 124 127 124 114 104 100 97 99 102 103 109 119 124 126 127 124 120 119 122 133 142 144 149 149 143 142 139 129 124 127 130 129 129 129 125 120 119 119 116 117 118 116 110 108 112 118 121 122 148 245 178 179
47 51 54 54 54 54 55 55 56 58 61 64 68 70 70 72 75 75 78 88 94 95 93 90 85 82 82 84 87 91 93 97 103 106 108 107 101 91 86 92 107 112 109 112 119 120 120 117 111 107 108 113 123 128 128 133 136 134 138 137 127 124 126 129 132 137 137 130 124 122 118 114 114 111 106 103 102 106 109 105 102 103 110 109 105
54 56 57 59 60 60 61 62 62 64 65 67 69 69 68 69 71 70 72 79 83 84 87 88 83 79 78 77 78 79 80 84 93 99 100 100 98 86 77 96 124 130 127 127 127 122 117 113 107 103 104 109 114 115 114 115 120 123 123 121 119 120 123 125 127 129 127 122 119 115 108 103 101 97 96 97 99 102 100 94 98 109 110 103 96
60 61 62 62 63 65 66 67 69 70 69 69 69 67 65 66 68 68 70 74 73 72 78 83 82 78 75 73 73 74 74 75 80 84 86 89 88 78 84 109 127 137 133 128 126 123 118 112 105 101 100 104 104 102 101 102 105 109 111 111 112 116 120 123 124 122 117 112 109 103 97 93 92 92 93 93 93 95 95 91 93 99 98 90 86
64 65 67 67 66 68 69 70 72 73 72 72 71 70 68 68 68 67 68 69 68 67 71 76 77 74 71 67 67 67 66 66 69 70 73 77 80 83 92 103 108 119 130 127 124 122 118 112 104 99 101 106 104 102 103 105 106 108 110 110 111 113 115 117 117 116 112 108 103 98 94 91 91 93 93 92 93 93 91 88 84 80 79 77 76
66 66 68 70 70 71 72 72 74 75 75 75 75 74 73 71 70 70 69 70 69 67 66 68 69 68 65 62 61 60 58 59 61 63 65 67 72 80 87 91 92 101 119 123 121 117 112 104 99 101 108 112 111 110 110 110 110 110 110 109 108 107 106 104 104 106 105 102 97 94 93 95 98 100 101 100 98 93 85 80 76 71 67 68 70
69 70 71 72 73 74 75 76 76 77 78 78 78 78 75 72 69 67 65 66 67 65 62 63 64 63 61 58 57 56 55 55 55 56 57 58 61 63 65 69 72 78 90 98 100 97 94 94 101 114 121 121 121 120 118 116 115 113 112 109 104 100 97 96 98 100 99 99 99 97 98 101 104 106 108 105 97 88 78 72 71 69 66 66 69
71 72 73 74 75 76 76 77 77 77 77 77 78 78 76 74 72 67 63 62 63 63 62 61 61 61 58 54 51 50 52 56 56 55 54 56 60 61 63 67 70 71 77 86 90 92 98 106 118 130 133 133 133 130 125 123 121 118 113 108 103 100 99 99 102 104 105 107 107 104 102 102 103 107 111 106 94 87 85 82 78 74 71 71 73
72 72 73 75 76 76 76 76 75 75 74 72 72 71 71 71 69 65 62 61 60 60 59 57 58 59 57 54 49 46 49 54 57 55 51 51 58 65 70 75 78 80 86 97 105 112 120 129 136 141 142 142 141 135 131 128 125 120 116 112 108 106 105 104 105 109 112 111 108 104 102 102 103 107 111 104 94 91 93 90 85 83 83 82 80
73 72 72 73 74 75 75 76 75 74 73 70 68 66 65 66 65 62 59 58 58 59 57 54 52 50 49 50 48 43 43 45 45 46 47 49 57 67 72 78 83 90 103 119 127 132 137 140 142 144 145 144 140 135 133 132 128 125 121 118 114 111 107 104 103 106 109 109 107 106 106 107 108 108 106 100 94 93 93 87 83 84 85 82 78
73 72 71 71 71 71 72 73 74 75 74 72 70 67 65 66 66 65 61 58 57 57 57 55 51 45 40 39 39 39 41 39 34 34 41 53 68 80 87 99 116 123 128 137 143 144 143 143 141 141 142 140 136 132 132 132 129 126 123 121 118 115 111 107 106 107 110 111 111 111 111 110 108 105 102 97 91 88 85 81 78 78 78 75 73
71 71 70 69 68 68 68 69 71 73 75 75 74 71 68 66 65 64 62 58 55 53 51 48 45 41 37 35 40 51 53 46 39 35 39 53 72 90 103 115 128 132 134 143 150 148 145 142 138 137 137 135 131 130 131 131 129 126 124 123 121 117 112 109 109 110 113 113 113 114 113 110 105 100 98 95 90 85 82 80 77 75 73 74 74
71 69 68 67 66 66 66 67 67 69 71 71 70 69 67 64 62 61 60 57 54 52 48 44 40 39 38 39 53 78 77 66 55 49 54 69 83 95 106 114 123 129 134 145 149 145 143 140 134 131 131 130 127 127 129 129 128 125 123 122 121 118 115 113 113 113 113 113 114 113 111 106 101 98 98 97 94 87 79 75 74 73 74 77 78
72 71 69 66 64 63 64 65 66 67 67 64 62 59 57 55 55 54 54 54 53 51 49 45 41 38 39 43 55 81 88 79 72 73 78 85 88 93 100 110 121 124 133 170 155 142 137 134 128 125 125 123 123 126 128 128 126 124 123 122 120 118 117 116 115 116 116 116 115 111 106 103 100 99 97 93 90 85 79 76 77 78 81 82 79
72 72 69 65 61 60 62 64 66 68 67 62 55 50 47 47 47 47 47 51 53 52 49 46 41 38 39 41 47 60 69 69 75 82 82 80 76 66 54 46 85 104 154 174 150 136 130 126 121 120 120 119 119 123 124 123 124 124 124 123 120 118 118 117 117 119 121 120 115 108 104 101 99 95 92 88 87 87 86 85 84 83 84 83 79
69 67 63 60 57 56 58 62 67 70 67 60 51 45 42 41 42 43 45 47 47 47 45 43 41 39 37 36 39 47 57 67 73 74 72 67 53 31 14 4 10 58 120 139 134 124 118 115 109 105 108 112 114 116 116 118 120 120 120 120 118 117 118 120 121 121 119 115 110 104 100 98 94 91 91 93 95 96 93 87 82 80 80 79 78
68 64 61 58 56 55 55 58 65 69 65 56 49 45 43 41 40 41 43 42 40 38 37 37 37 36 35 33 33 34 41 54 58 58 62 52 26 9 5 24 75 96 109 118 116 107 99 96 92 89 93 101 107 109 110 113 117 118 117 117 118 120 121 122 122 121 116 110 105 101 97 95 93 93 98 100 98 94 89 84 80 78 77 77 76
67 64 61 59 59 58 56 57 62 66 63 55 49 46 44 42 39 38 38 37 35 32 29 29 31 31 30 31 28 23 18 15 10 11 13 4 358 0 23 77 93 96 98 98 98 94 87 84 85 87 89 93 99 100 100 108 117 120 119 119 120 123 123 120 119 117 112 107 106 104 99 96 97 100 102 98 90 85 84 83 82 79 75 75 73
66 62 59 56 56 57 57 58 61 64 62 56 49 45 44 41 38 35 32 30 28 25 23 23 23 22 22 23 22 17 11 5 358 353 347 348 359 25 82 100 93 90 88 85 86 86 84 83 85 86 89 92 94 95 98 108 116 119 120 121 123 124 123 122 121 117 109 105 106 107 105 103 102 99 95 90 84 81 79 80 85 87 82 77 74
67 62 58 53 52 54 56 58 60 60 59 55 48 43 41 38 35 33 30 26 24 22 19 21 21 19 18 18 17 15 10 4 1 2 7 19 37 66 93 97 90 85 83 83 85 87 87 87 84 85 90 91 88 93 104 112 117 120 120 120 121 120 118 116 115 113 106 102 104 108 108 104 97 89 86 85 83 82 82 83 89 96 92 80 72
68 62 58 54 51 52 57 61 60 58 55 50 43 37 33 30 30 28 27 26 25 23 24 26 26 24 21 18 18 21 26 32 38 41 49 61 71 80 85 84 82 82 81 80 79 80 85 89 87 86 91 92 92 103 112 116 121 123 120 116 115 114 110 107 106 104 102 100 103 104 103 100 95 88 85 86 86 87 89 89 91 94 93 86 78
73 65 60 57 56 56 60 61 57 50 44 39 33 27 24 23 24 23 23 25 26 25 29 34 32 28 25 22 22 29 40 50 58 65 72 76 78 79 79 77 75 76 76 74 72 73 79 87 89 93 100 102 103 108 112 116 120 119 116 114 112 110 107 104 101 100 100 99 99 98 96 98 97 89 85 91 97 99 97 95 95 96 94 92 86
76 69 63 62 61 59 57 55 49 43 39 35 30 24 19 18 19 20 21 24 26 26 29 34 33 30 29 27 27 34 45 55 62 71 79 81 80 80 79 76 75 74 71 69 69 69 74 87 99 104 107 109 109 110 110 110 112 111 110 110 107 104 102 101 101 100 97 92 90 92 93 95 97 95 96 103 109 112 109 105 105 106 102 94 89
68 70 68 68 65 58 52 50 46 42 39 35 31 29 24 19 17 19 21 22 24 25 26 29 29 28 28 27 30 36 45 54 60 67 74 78 80 83 82 80 78 76 73 70 69 68 69 80 97 111 117 117 116 114 112 108 104 102 102 104 103 102 103 104 105 103 97 90 90 97 102 98 92 97 113 119 120 124 126 122 119 120 113 100 89
59 71 73 70 66 59 52 47 41 35 32 31 30 30 31 30 24 18 19 21 22 20 19 19 20 22 23 25 30 37 43 48 53 59 65 71 76 80 82 82 80 77 74 69 67 66 64 64 73 94 114 124 126 123 120 114 103 96 97 100 104 110 114 113 108 104 101 96 92 98 108 103 85 83 108 126 128 134 140 140 140 141 133 117 96
60 67 68 61 58 53 45 38 32 27 26 27 25 25 30 36 36 20 10 13 16 16 12 8 7 10 13 18 24 30 34 39 45 50 54 60 64 67 71 76 76 73 69 62 58 59 61 60 60 67 85 108 122 128 134 137 122 104 104 106 106 111 119 117 110 108 109 105 93 92 106 108 91 83 100 117 129 147 157 159 166 169 161 144 96
61 63 61 52 51 51 43 35 30 25 22 21 19 15 19 28 34 25 6 357 358 1 1 359 357 356 355 359 8 15 18 21 26 34 37 39 38 37 41 47 48 45 44 42 40 41 47 55 60 61 63 78 104 130 151 167 177 184 176 171 179 179 171 177 160 134 130 129 112 102 107 107 96 92 102 106 118 149 160 163 174 173 164 135 65
67 63 56 48 47 46 35 26 22 20 19 20 19 13 6 9 17 17 8 353 343 339 335 334 338 341 339 336 336 343 354 1 5 8 8 7 9 8 3 358 359 4 7 10 10 11 14 26 47 54 46 44 58 133 179 188 198 209 215 225 234 231 222 221 217 205 198 188 162 144 134 119 110 132 141 132 133 149 148 149 157 144 117 84 64
68 62 54 45 38 29 19 14 14 15 17 19 18 15 9 1 358 357 351 343 338 333 325 318 318 319 318 316 316 315 317 320 325 329 334 335 340 346 346 342 336 333 333 339 346 348 342 336 338 345 339 331 320 298 265 240 232 230 229 234 240 241 238 235 234 232 227 217 203 194 188 175 168 185 181 177 185 181 167 164 156 121 87 64 56
61 56 47 36 25 12 5 3 5 5 6 9 11 12 10 5 0 356 345 329 322 322 320 317 316 311 304 301 302 302 299 295 291 289 291 295 298 305 315 321 326 327 328 326 326 329 328 319 312 316 320 317 308 298 287 272 264 260 254 249 248 247 245 242 239 235 227 219 212 207 203 199 206 212 202 195 195 191 180 172 152 114 79 59 54
47 41 25 18 13 5 357 354 351 350 355 357 358 0 2 0 357 354 348 336 325 322 321 321 321 318 311 306 301 294 287 283 281 278 277 280 285 291 296 303 311 319 324 324 321 319 315 306 305 312 317 312 301 296 293 285 278 274 270 265 261 255 248 239 233 227 222 215 211 209 207 204 205 204 195 188 185 177 162 151 139 113 78 55 50
358 342 330 332 338 339 339 337 333 332 338 343 345 347 349 348 346 345 343 336 329 325 323 322 322 319 315 311 305 294 281 272 271 273 276 279 282 285 288 292 299 307 313 316 317 314 306 298 300 308 311 306 296 289 286 284 281 278 277 279 275 264 249 235 225 218 213 210 206 204 203 201 196 193 190 185 180 176 167 157 149 130 58 37 47
286 296 298 301 308 316 321 319 316 317 323 331 336 338 338 335 334 337 338 338 336 335 332 328 322 315 311 311 308 297 281 266 261 264 269 273 276 282 286 286 289 294 299 303 307 307 299 291 293 301 304 299 291 285 282 281 282 283 286 292 288 270 247 228 215 207 206 207 205 203 204 204 198 194 192 189 185 188 194 194 199 256 274 168 147